{"data":{"norad_id":53923,"intl_designator":"2022-119AP","name":"STARLINK-5004","alt_names":[],"object_type":"PAYLOAD","status":"ACTIVE","operator":null,"country":"US","launch_date":"2022-09-24","launch_site_code":"AFETR","launch_vehicle":null,"mission":null,"orbit_class":"UNKNOWN","rcs_meters":null,"size_class":null,"mass_kg":null,"dimensions":null,"purposes":["comms"],"wikipedia_slug":null,"has_3d_model":false,"image_url":null,"decayed_at":null,"tle_current":{"epoch":"2026-09-20T05:06:03.091392Z","epoch_age_seconds":111894,"freshness":"FRESH","line1":"1 53923U 22119AP  26263.21253578 -.00000015  00000+0  17147-4 0  9999","line2":"2 53923  53.1602 160.0391 0001462  85.5188 274.5970 15.08831941221198","mean_motion":15.08831941,"eccentricity":0.0001462,"inclination_deg":53.1602,"raan_deg":160.0391,"arg_perigee_deg":85.5188,"mean_anomaly_deg":274.597,"bstar":1.7147e-5,"rev_number":22119,"period_min":95.43806443053,"perigee_km":538.75662449845,"apogee_km":540.77941992694,"semimajor_km":6917.9050222127,"source":"CELESTRAK","updated_at":"2026-09-21T09:00:33.035715Z"}}}